Location: Cheyres
(46.8153°N, 6.7877°E)
Time: 21:47:30
(UTC+00:00)

QB50P2 - Pass Details

Date: 26 June 2022
Orbit: 590 x 605 km, 97.9° (Epoch: 15 August)

Event Time Altitude Azimuth Distance (km) Brightness Sun altitude
Rises 00:48:06 0° 16° (NNE) 2,855 ? -17.9°
Reaches altitude 10° 00:50:18 10° 20° (NNE) 1,950 ? -17.8°
Maximum altitude 00:54:30 62° 101° (E) 678 ? -17.6°
Enters shadow 00:56:17 32° 171° (S) 1,031 ? -17.5°
